Regional Weather Roundup
Issued by NWS Glasgow, MT

Home | Current Version | Previous Version | Text Only | Print | Product List | Glossary On
Versions: 1 2 3 4 5 6 7 8 9 10 11 12 13 14 15 16 17 18 19 20 21 22 23 24 25 26 27 28 29 30 31 32 33 34 35 36 37 38 39 40 41 42 43 44 45 46 47 48 49 50
000
ASUS45 KGGW 311415
RWRGGW
HOURLY WEATHER ROUNDUP FOR NORTHEAST MONTANA
NATIONAL WEATHER SERVICE GLASGOW MONTANA
700 AM MST SAT JAN 31 2015

NOTE: "FAIR" INDICATES FEW OR NO CLOUDS BELOW 12,000 FEET WITH NO
SIGNIFICANT WEATHER AND/OR OBSTRUCTIONS TO VISISBILITY.

NORTHEAST MONTANA


CITY           SKY/WX    TMP DP  RH WIND       PRES   REMARKS
GLASGOW        CLOUDY    22  19  89 E25G33    30.09R FOG
PLENTYWOOD       N/A     13  10  88 E20         N/A  WCI  -5
WOLF POINT     CLOUDY    23  20  88 E24G31    30.14S
JORDAN           N/A     25  24  96 NE15      30.00R
WINNETT          N/A     26  26 100 N3G16       N/A
SIDNEY         CLOUDY    25  21  86 E12       30.18S
GLENDIVE       CLOUDY    23  19  86 E17G23    30.08S
MALTA            N/A     24  24 100 E12G21      N/A
SCOBEY           N/A     15   9  76 NE16G23   30.15R WCI   0

FORT PECK REPORTS


CITY           SKY/WX    TMP DP  RH WIND       PRES   REMARKS
FORT PECK        N/A     23  23 100 E20G28      N/A
THE PINES        N/A     23  22  96 NE16        N/A

SOUTHEAST MONTANA


CITY           SKY/WX    TMP DP  RH WIND       PRES   REMARKS
BILLINGS       PTCLDY    29  20  69 SW15      29.94R
MILES CITY     PTCLDY    23  21  92 NE16      29.97S
BAKER          FOG       24  23  96 E22G28    30.02S VSB 3/4
LIVINGSTON     PTCLDY    27  16  63 NW15      30.00R

CENTRAL MONTANA


CITY           SKY/WX    TMP DP  RH WIND       PRES   REMARKS
HAVRE          LGT SNOW  24  22  91 NE17      30.10R FOG
LEWISTOWN      CLOUDY    27  23  85 W14       29.99R
GREAT FALLS    CLOUDY    26  24  92 N13       30.08R
CUT BANK       LGT SNOW  17  14  88 N24       30.13R FOG     WCI  -1
HELENA         CLOUDY    25  22  88 NE3       30.03S
BUTTE          CLOUDY    16  12  84 S9        30.05R
BOZEMAN        CLOUDY    19  16  88 CALM      30.05R

WESTERN MONTANA


CITY           SKY/WX    TMP DP  RH WIND       PRES   REMARKS
MISSOULA       MOCLDY    23  22  96 CALM      30.14R
KALISPELL      NOT AVBL

NORTH DAKOTA


CITY           SKY/WX    TMP DP  RH WIND       PRES   REMARKS
WILLISTON      CLOUDY    15  11  83 E18G25    30.23R WCI  -2
DICKINSON      CLOUDY    20  17  88 E16       30.10S FOG
MINOT          CLOUDY     8  -1  66 NE14      30.32R WCI  -8
BISMARCK       CLOUDY    17  14  88 NE16G23   30.25R

SOUTHERN SASKATCHEWAN


CITY           SKY/WX    TMP DP  RH WIND       PRES   REMARKS
REGINA         MOCLDY     3  -4  72 NE15      30.38R WCI -15
ESTEVAN        LGT SNOW   7   1  78 E14G20    30.32R DRFTSNOWWCI -10
SWIFT CURRENT  LGT SNOW   5   3  92 NE23      30.25S WCI -17




USA.gov is the U.S. government's official web portal to all federal, state and local government web resources and services.